Location: Orange Harbor Mobile Home Park
(26.6923°N, 81.7937°W)
Time: 23:06:53
(UTC+00:00)

Meteor PRIRODA - Pass Details

Date: 19 September 2020
Orbit: 489 x 511 km, 97.6° (Epoch: 25 October)

Event Time Altitude Azimuth Distance (km) Brightness Sun altitude
Rises 10:37:05 0° 8° (N) 2,582 7.4 -9.2°
Reaches altitude 10° 10:39:10 10° 6° (N) 1,693 6.5 -8.7°
Maximum altitude 10:42:47 72° 283° (WNW) 521 3.5 -7.9°
Drops below altitude 10° 10:46:22 10° 198° (SSW) 1,674 6.1 -7.1°
Sets 10:48:26 0° 196° (SSW) 2,550 7.0 -6.7°
